Tracking 27401 objects as of 4-Jun-2023
HD Live streaming from Space Station
objects crossing your sky now

SBS 6

Track SBS 6 now!
SBS 6 is classified as:


NORAD ID: 20872
Int'l Code: 1990-091A
Perigee: 36,113.5 km
Apogee: 36,197.5 km
Inclination: 11.0 °
Period: 1,454.6 minutes
Semi major axis: 42526 km
RCS: 24.6021 m2 (large)
Launch date: October 12, 1990
Source: United States (US)
Launch site: FRENCH GUIANA (FRGUI)
Your satellite tracking list
Your tracking list is empty




NASA's NSSDC Master Catalog

Two Line Element Set (TLE):
1 20872U 90091A   23154.38419542 -.00000167  00000-0  00000-0 0  9994
2 20872  10.9668  36.4914 0009880  84.7889 270.2568  0.98994942 35100
Source of the keplerian elements: AFSPC